Regional Weather Roundup
Issued by NWS

Home | Current Version | Previous Version | Text Only | Print | Product List | Glossary Off
Versions: 1 2 3 4 5 6 7 8 9 10 11 12 13 14 15 16 17 18 19 20 21 22 23 24 25 26 27 28 29 30 31 32 33 34 35 36 37 38 39 40 41 42 43 44 45 46 47 48 49 50

000
ASUS44 KMEG 040010
RWRTN
TENNESSEE HOURLY STATE WEATHER ROUNDUP
NATIONAL WEATHER SERVICE MEMPHIS TN
700 PM CDT SUN MAY 03 2015

TNZ002-004-019-021-049-052-054-088>092-040100-
WEST TENNESSEE

CITY           SKY/WX    TMP DP  RH WIND       PRES   REMARKS
MEMPHIS INTL   MOCLDY    79  48  33 SE8       30.04S
NWS MEMPHIS      N/A    N/A N/A N/A MISG        N/A
JACKSON        MOCLDY    76  52  43 S3        30.07R
DYERSBURG      PTCLDY    77  43  29 S5        30.05F
PARIS          CLEAR     73  52  46 S6        30.07R
LEXINGTON      CLEAR     73  48  40 CALM      30.07R
$$

TNZ008-025-027-028-033-062-065-066-040100-
NORTH MIDDLE TENNESSEE

CITY           SKY/WX    TMP DP  RH WIND       PRES   REMARKS
NASHVILLE      MOCLDY    75  49  39 SW7       30.09R
CLARKSVILLE    CLEAR     76  48  37 SW5       30.06S
SMYRNA         PTCLDY    76  50  40 SW5       30.10R
COOKEVILLE     CLEAR     73  59  60 CALM      30.10S
CROSSVILLE     PTCLDY    71  46  40 S5        30.15R
$$

TNZ061-075-076-078-094-096-097-040100-
SOUTH MIDDLE TENNESSEE

CITY           SKY/WX    TMP DP  RH WIND       PRES   REMARKS
FAYETTEVILLE     N/A     73  48  40 SW3       30.12R
TULLAHOMA      CLEAR     72  48  43 CALM      30.13R
WINCHESTER     CLEAR     73  46  38 SW5       30.12R
MCMINNVILLE    CLEAR     72  52  49 SW3       30.11S
COLUMBIA       CLEAR     73  52  46 S3        30.08S
SHELBYVILLE    CLEAR     73  52  46 SW5       30.12R
$$

TNZ017-018-042-046-047-040100-
NORTHEAST TENNESSEE

CITY           SKY/WX    TMP DP  RH WIND       PRES   REMARKS
TRI CITIES     PTCLDY    72  42  34 W7        30.13S
ELIZABETHTON   PTCLDY    64  48  55 NW3       30.14R
$$

TNZ012-013-036-069-073-074-040100-
CENTRAL EAST TENNESSEE

CITY           SKY/WX    TMP DP  RH WIND       PRES   REMARKS
KNOXVILLE      MOCLDY    73  47  39 W3        30.11S
OAK RIDGE      PTCLDY    75  45  34 CALM      30.13R
GATLINBURG     CLEAR     73  45  35 NW5       30.12R
MORRISTOWN     PTCLDY    75  46  35 W3        30.14R
$$

TNZ083-085-099-040100-
SOUTHEAST TENNESSEE

CITY           SKY/WX    TMP DP  RH WIND       PRES   REMARKS
CHATTANOOGA    MOCLDY    76  43  30 S6        30.11S
$$

SKY/WX REPORTED AS FAIR MEANS FEW OR NO CLOUDS BELOW
12 THOUSAND FEET.




USA.gov is the U.S. government's official web portal to all federal, state and local government web resources and services.